ROMMA est une association bénévole à but non lucratif. Votre soutien est indispensable : ADHERER à ROMMA ou FAIRE un DON

Chambon - (38, Isère)

Oisans (2460 m)   Longitude: 06° 10' 42" E   Latitude: 45° 01' 32" N Station partenaire n°803
 

Détail journalier du     <<     >>

Température Humidité Vent Dir Rafale Dir. rafale Neige 1 Neige 2
Heure (°C) (%) (km/h) (km/h) (cm) (cm)
01:00 9.3826S11OSO00
02:00 9.1804OSO11OSO00
03:00 9.4784SSO8SSO00
04:00 9.1784SSO7SSO00
05:00 9.2762S6SSO10
06:00 9.7702ENE6ENE00
07:00 9.3724ENE7ENE10
08:00 9.2723ENE6SO00
09:00 10.4691ENE5NO00
10:00 11.2702NE6NE00
11:00 11.3704NNE8NNE00
12:00 11.0695N10N00
13:00 11.6704O10NO00
14:00 12.4704NO9NO00
15:00 12.3693N8NNE00
16:00 10.9794NNE11O20
17:00 12.4654OSO11OSO00
18:00 12.8722ENE9ENE00
19:00 11.9743N8N30
20:00 10.5862NE8ENE60
21:00 9.5914NNE12NE60
22:00 9.48210NE22NE40
23:00 9.08712NNE20NNE50
minuit 9.48010NE18NE50

Graphique du 22-08-2019

 

Serveur OMMA